,,,PA_Meas_PMT16A,,PR_Meas_QMR101_102,,RH_Meas_QMH101,,SR_Meas_QMS101,,TA_Meas_QMH101,,GenWind,,GenWind,
date,time,status,PA,status,PR,status,RH,status,SR,status,TA,status,DirAvg,status,SpdAvg,
2011-05-24, 00:00:04,VALID,1003.45,VALID,0,INVALID,163.624,VALID,0,VALID,25.4539,VALID,357,VALID,0.339844,
2011-05-24, 00:01:04,VALID,1003.42,VALID,0,INVALID,163.647,VALID,0,VALID,25.4948,VALID,357,VALID,0.205078,
2011-05-24, 00:02:04,VALID,1003.41,VALID,0,INVALID,163.639,VALID,0,VALID,25.4734,VALID,351,VALID,0.303906,
2011-05-24, 00:03:04,VALID,1003.39,VALID,0,INVALID,163.617,VALID,0,VALID,25.4734,VALID,350,VALID,0.409375,
2011-05-24, 00:04:04,VALID,1003.35,VALID,0,INVALID,163.647,VALID,0,VALID,25.4539,VALID,350,VALID,0.466406,
2011-05-24, 00:05:04,VALID,1003.34,VALID,0,INVALID,163.632,VALID,0.100563,VALID,25.4539,VALID,350,VALID,0.417578,
2011-05-24, 00:06:04,VALID,1003.35,VALID,0,INVALID,163.647,VALID,0,VALID,25.3955,VALID,350,VALID,0.384766,
2011-05-24, 00:07:04,VALID,1003.31,VALID,0,INVALID,163.647,VALID,0.100563,VALID,25.376,VALID,350,VALID,0.369141,
2011-05-24, 00:08:04,VALID,1003.26,VALID,0,INVALID,163.67,VALID,0,VALID,25.3176,VALID,350,VALID,0.308984,
2011-05-24, 00:09:04,VALID,1003.26,VALID,0,INVALID,163.639,VALID,0.100563,VALID,25.2786,VALID,350,VALID,0.451172,
2011-05-24, 00:10:04,VALID,1003.25,VALID,0,INVALID,163.655,VALID,0,VALID,25.2397,VALID,349,VALID,0.648828,
2011-05-24, 00:11:04,VALID,1003.23,VALID,0,INVALID,163.685,VALID,0,VALID,25.2202,VALID,347,VALID,0.436328,
2011-05-24, 00:12:04,VALID,1003.2,VALID,0,INVALID,163.685,VALID,0,VALID,25.2183,VALID,339,VALID,0.555469,
2011-05-24, 00:13:04,VALID,1003.2,VALID,0,INVALID,163.639,VALID,0,VALID,25.2202,VALID,337,VALID,0.413281,
2011-05-24, 00:14:04,VALID,1003.12,VALID,0,INVALID,163.685,VALID,0,VALID,25.1794,VALID,337,VALID,0.374219,
2011-05-24, 00:15:04,VALID,1003.15,VALID,0,INVALID,163.639,VALID,0.100563,VALID,25.2007,VALID,339,VALID,0.356641,
2011-05-24, 00:16:04,VALID,1003.11,VALID,0,INVALID,163.647,VALID,0,VALID,25.1988,VALID,348,VALID,0.299609,
2011-05-24, 00:17:04,VALID,1003.1,VALID,0,INVALID,163.655,VALID,0,VALID,25.1988,VALID,348,VALID,0.349609,
2011-05-24, 00:18:04,VALID,1003.08,VALID,0,INVALID,163.647,VALID,0.100563,VALID,25.2202,VALID,348,VALID,0.312109,
2011-05-24, 00:19:04,VALID,1003.11,VALID,0,INVALID,163.655,VALID,0,VALID,25.2007,VALID,348,VALID,0.351563,
2011-05-24, 00:20:04,VALID,1003.07,VALID,0,INVALID,163.647,VALID,0,VALID,25.1813,VALID,350,VALID,0.508594,
2011-05-24, 00:21:04,VALID,1003.05,VALID,0,INVALID,163.655,VALID,0,VALID,25.1423,VALID,352,VALID,0.522656,
2011-05-24, 00:22:04,VALID,1003.05,VALID,0,INVALID,163.662,VALID,0.100563,VALID,25.0644,VALID,351,VALID,0.342969,
2011-05-24, 00:23:04,VALID,1003.03,VALID,0,INVALID,163.662,VALID,0,VALID,25.0255,VALID,351,VALID,0.230859,
2011-05-24, 00:24:04,VALID,1002.99,VALID,0,INVALID,163.647,VALID,0,VALID,24.9652,VALID,352,VALID,0.418359,
2011-05-24, 00:25:04,VALID,1003.02,VALID,0,INVALID,163.67,VALID,0,VALID,24.9671,VALID,351,VALID,0.220703,
2011-05-24, 00:26:04,VALID,1002.99,VALID,0,INVALID,163.678,VALID,0,VALID,24.9068,VALID,352,VALID,0.282422,
2011-05-24, 00:27:04,VALID,1002.97,VALID,0,INVALID,163.678,VALID,0,VALID,24.9282,VALID,351,VALID,0.498828,
2011-05-24, 00:28:04,VALID,1002.91,VALID,0,INVALID,163.655,VALID,0.100563,VALID,24.9087,VALID,351,VALID,0.498437,
2011-05-24, 00:29:04,VALID,1002.93,VALID,0,INVALID,163.662,VALID,0,VALID,24.9087,VALID,351,VALID,0.444531,
2011-05-24, 00:30:04,VALID,1002.86,VALID,0,INVALID,163.662,VALID,0.100563,VALID,24.8873,VALID,351,VALID,0.423047,
2011-05-24, 00:31:04,VALID,1002.84,VALID,0,INVALID,163.685,VALID,0.100563,VALID,24.8892,VALID,351,VALID,0.511719,
2011-05-24, 00:32:04,VALID,1002.82,VALID,0,INVALID,163.693,VALID,0,VALID,24.8892,VALID,351,VALID,0.408203,
2011-05-24, 00:33:04,VALID,1002.81,VALID,0,INVALID,163.678,VALID,0.100563,VALID,24.8697,VALID,351,VALID,0.501562,
2011-05-24, 00:34:04,VALID,1002.8,VALID,0,INVALID,163.685,VALID,0.100563,VALID,24.8308,VALID,350,VALID,0.408203,
2011-05-24, 00:35:04,VALID,1002.83,VALID,0,INVALID,163.678,VALID,0.100563,VALID,24.79,VALID,350,VALID,0.455859,
2011-05-24, 00:36:04,VALID,1002.84,VALID,0,INVALID,163.678,VALID,0,VALID,24.7919,VALID,350,VALID,0.423828,
2011-05-24, 00:37:04,VALID,1002.83,VALID,0,INVALID,163.678,VALID,0,VALID,24.7919,VALID,350,VALID,0.543359,
2011-05-24, 00:38:04,VALID,1002.82,VALID,0,INVALID,163.678,VALID,0.100563,VALID,24.8113,VALID,357,VALID,0.424219,
2011-05-24, 00:39:04,VALID,1002.8,VALID,0,INVALID,163.685,VALID,0,VALID,24.8308,VALID,320,VALID,0.301562,
2011-05-24, 00:40:04,VALID,1002.77,VALID,0,INVALID,163.662,VALID,0,VALID,24.8289,VALID,348,VALID,0.565625,
2011-05-24, 00:41:04,VALID,1002.81,VALID,0,INVALID,163.67,VALID,0,VALID,24.9087,VALID,350,VALID,0.376563,
2011-05-24, 00:42:04,VALID,1002.79,VALID,0,INVALID,163.67,VALID,0.100563,VALID,24.9087,VALID,349,VALID,0.438281,
2011-05-24, 00:43:04,VALID,1002.8,VALID,0,INVALID,163.693,VALID,0,VALID,24.9282,VALID,351,VALID,0.536719,
2011-05-24, 00:44:04,VALID,1002.81,VALID,0,INVALID,163.655,VALID,0.100563,VALID,24.9476,VALID,357,VALID,0.602344,
2011-05-24, 00:45:04,VALID,1002.81,VALID,0,INVALID,163.678,VALID,0.100563,VALID,24.9476,VALID,355,VALID,0.752734,
2011-05-24, 00:46:04,VALID,1002.79,VALID,0,INVALID,163.655,VALID,0,VALID,24.9263,VALID,355,VALID,0.453516,
2011-05-24, 00:47:04,VALID,1002.78,VALID,0,INVALID,163.662,VALID,0.100563,VALID,24.8873,VALID,355,VALID,0.289453,
2011-05-24, 00:48:04,VALID,1002.75,VALID,0,INVALID,163.701,VALID,0.100563,VALID,24.8892,VALID,355,VALID,0.286719,
2011-05-24, 00:49:04,VALID,1002.74,VALID,0,INVALID,163.693,VALID,0,VALID,24.8697,VALID,351,VALID,0.541406,
2011-05-24, 00:50:04,VALID,1002.7,VALID,0,INVALID,163.678,VALID,0.100563,VALID,24.8289,VALID,351,VALID,0.455469,
2011-05-24, 00:51:04,VALID,1002.69,VALID,0,INVALID,163.693,VALID,0.100563,VALID,24.8503,VALID,346,VALID,0.484375,
2011-05-24, 00:52:04,VALID,1002.67,VALID,0,INVALID,163.701,VALID,0.100563,VALID,24.8484,VALID,346,VALID,0.546484,
2011-05-24, 00:53:04,VALID,1002.67,VALID,0,INVALID,163.67,VALID,0.100563,VALID,24.8484,VALID,346,VALID,0.420312,
2011-05-24, 00:54:04,VALID,1002.67,VALID,0,INVALID,163.67,VALID,0.100563,VALID,24.8697,VALID,347,VALID,0.5375,
2011-05-24, 00:55:04,VALID,1002.68,VALID,0,INVALID,163.685,VALID,0,VALID,24.8697,VALID,347,VALID,0.455078,
2011-05-24, 00:56:04,VALID,1002.66,VALID,0,INVALID,163.647,VALID,0,VALID,24.8873,VALID,358,VALID,0.562109,
2011-05-24, 00:57:04,VALID,1002.65,VALID,0,INVALID,163.67,VALID,0,VALID,24.9476,VALID,345,VALID,0.369922,
2011-05-24, 00:58:04,VALID,1002.62,VALID,0,INVALID,163.662,VALID,0,VALID,24.9866,VALID,346,VALID,0.605078,
2011-05-24, 00:59:04,VALID,1002.57,VALID,0,INVALID,163.655,VALID,0,VALID,25.0255,VALID,346,VALID,0.525,
2011-05-24, 01:00:04,VALID,1002.55,VALID,0,INVALID,163.678,VALID,0.100563,VALID,25.0041,VALID,347,VALID,0.742969,
2011-05-24, 01:01:04,VALID,1002.49,VALID,0,INVALID,163.632,VALID,0,VALID,25.045,VALID,355,VALID,0.663672,
2011-05-24, 01:02:04,VALID,1002.45,VALID,0,INVALID,163.67,VALID,0,VALID,25.0431,VALID,355,VALID,0.666406,
2011-05-24, 01:03:04,VALID,1002.41,VALID,0,INVALID,163.693,VALID,0.100563,VALID,25.1034,VALID,5,VALID,0.541016,
2011-05-24, 01:04:04,VALID,1002.38,VALID,0,INVALID,163.67,VALID,0,VALID,25.1404,VALID,355,VALID,0.539063,
2011-05-24, 01:05:04,VALID,1002.39,VALID,0,INVALID,163.639,VALID,0,VALID,25.2007,VALID,319,VALID,0.478516,
2011-05-24, 01:06:04,VALID,1002.37,VALID,0,INVALID,163.632,VALID,0,VALID,25.2397,VALID,309,VALID,0.0046875,
2011-05-24, 01:07:04,VALID,1002.34,VALID,0,INVALID,163.647,VALID,0,VALID,25.2786,VALID,340,VALID,0.423438,
2011-05-24, 01:08:04,VALID,1002.34,VALID,0,INVALID,163.639,VALID,0.100563,VALID,25.2962,VALID,355,VALID,0.330078,
2011-05-24, 01:09:04,VALID,1002.34,VALID,0,INVALID,163.632,VALID,0,VALID,25.3565,VALID,354,VALID,0.240625,
2011-05-24, 01:10:04,VALID,1002.34,VALID,0,INVALID,163.632,VALID,0,VALID,25.3546,VALID,354,VALID,0.0125,
2011-05-24, 01:11:04,VALID,1002.34,VALID,0,INVALID,163.655,VALID,0.100563,VALID,25.3955,VALID,340,VALID,0.592188,
2011-05-24, 01:12:04,VALID,1002.32,VALID,0,INVALID,163.639,VALID,0,VALID,25.4149,VALID,336,VALID,0.609766,
2011-05-24, 01:13:04,VALID,1002.3,VALID,0,INVALID,163.601,VALID,0,VALID,25.4539,VALID,348,VALID,0.585938,
2011-05-24, 01:14:04,VALID,1002.29,VALID,0,INVALID,163.617,VALID,0,VALID,25.4734,VALID,335,VALID,0.859766,
2011-05-24, 01:15:04,VALID,1002.27,VALID,0,INVALID,163.586,VALID,0.100563,VALID,25.4734,VALID,343,VALID,0.0300781,
2011-05-24, 01:16:04,VALID,1002.22,VALID,0,INVALID,163.609,VALID,0,VALID,25.4734,VALID,279,VALID,0.167578,
2011-05-24, 01:17:04,VALID,1002.23,VALID,0,INVALID,163.639,VALID,0.100563,VALID,25.4714,VALID,356,VALID,0.535937,
2011-05-24, 01:18:04,VALID,1002.21,VALID,0,INVALID,163.632,VALID,0.100563,VALID,25.4928,VALID,292,VALID,0.187891,
2011-05-24, 01:19:04,VALID,1002.21,VALID,0,INVALID,163.655,VALID,0,VALID,25.4928,VALID,292,VALID,0.000390625,
2011-05-24, 01:20:04,VALID,1002.17,VALID,0,INVALID,163.624,VALID,0,VALID,25.5123,VALID,347,VALID,0.4625,
2011-05-24, 01:21:04,VALID,1002.18,VALID,0,INVALID,163.632,VALID,0,VALID,25.5123,VALID,6,VALID,0.869922,
2011-05-24, 01:22:04,VALID,1002.18,VALID,0,INVALID,163.624,VALID,0,VALID,25.4909,VALID,343,VALID,0.376563,
2011-05-24, 01:23:04,VALID,1002.17,VALID,0,INVALID,163.617,VALID,0.100563,VALID,25.4909,VALID,337,VALID,0.448828,
2011-05-24, 01:24:04,VALID,1002.18,VALID,0,INVALID,163.617,VALID,0.100563,VALID,25.5123,VALID,337,VALID,0.292578,
2011-05-24, 01:25:04,VALID,1002.17,VALID,0,INVALID,163.632,VALID,0.100563,VALID,25.4714,VALID,337,VALID,0.00585938,
2011-05-24, 01:26:04,VALID,1002.17,VALID,0,INVALID,163.639,VALID,0,VALID,25.4539,VALID,337,VALID,0.398828,
2011-05-24, 01:27:04,VALID,1002.17,VALID,0,INVALID,163.639,VALID,0.100563,VALID,25.3955,VALID,354,VALID,0.46875,
2011-05-24, 01:28:04,VALID,1002.21,VALID,0,INVALID,163.632,VALID,0.100563,VALID,25.2962,VALID,353,VALID,0.495313,
2011-05-24, 01:29:04,VALID,1002.18,VALID,0,INVALID,163.662,VALID,0.100563,VALID,25.2592,VALID,354,VALID,0.380859,
2011-05-24, 01:30:04,VALID,1002.19,VALID,0,INVALID,163.655,VALID,0.100563,VALID,25.1599,VALID,354,VALID,0.406641,
2011-05-24, 01:31:04,VALID,1002.16,VALID,0,INVALID,163.662,VALID,0,VALID,25.0644,VALID,7,VALID,0.587109,
2011-05-24, 01:32:04,VALID,1002.14,VALID,0,INVALID,163.678,VALID,0,VALID,24.9866,VALID,7,VALID,0.393359,
2011-05-24, 01:33:04,VALID,1002.17,VALID,0,INVALID,163.662,VALID,0,VALID,24.9476,VALID,7,VALID,0.605078,
2011-05-24, 01:34:04,VALID,1002.13,VALID,0,INVALID,163.67,VALID,0.100563,VALID,24.9087,VALID,7,VALID,0.58125,
2011-05-24, 01:35:04,VALID,1002.12,VALID,0,INVALID,163.685,VALID,0,VALID,24.8503,VALID,7,VALID,0.615234,
2011-05-24, 01:36:04,VALID,1002.1,VALID,0,INVALID,163.701,VALID,0,VALID,24.8113,VALID,6,VALID,0.539844,
2011-05-24, 01:37:04,VALID,1002.1,VALID,0,INVALID,163.678,VALID,0.100563,VALID,24.7919,VALID,2,VALID,0.246875,
2011-05-24, 01:38:04,VALID,1002.1,VALID,0,INVALID,163.662,VALID,0,VALID,24.79,VALID,336,VALID,0.372266,
2011-05-24, 01:39:04,VALID,1002.09,VALID,0,INVALID,163.685,VALID,0.100563,VALID,24.7919,VALID,357,VALID,0.592188,
2011-05-24, 01:40:04,VALID,1002.1,VALID,0,INVALID,163.647,VALID,0.100563,VALID,24.8503,VALID,11,VALID,0.798437,
2011-05-24, 01:41:04,VALID,1002.07,VALID,0,INVALID,163.685,VALID,0.100563,VALID,24.8503,VALID,26,VALID,0.709375,
2011-05-24, 01:42:04,VALID,1002.09,VALID,0,INVALID,163.685,VALID,0,VALID,24.8892,VALID,13,VALID,0.529688,
2011-05-24, 01:43:04,VALID,1002.06,VALID,0,INVALID,163.662,VALID,0,VALID,24.9087,VALID,10,VALID,0.350781,
2011-05-24, 01:44:04,VALID,1002.08,VALID,0,INVALID,163.655,VALID,0,VALID,24.9495,VALID,10,VALID,0.214453,
2011-05-24, 01:45:04,VALID,1002.09,VALID,0,INVALID,163.701,VALID,0,VALID,24.9282,VALID,10,VALID,0.0109375,
2011-05-24, 01:46:04,VALID,1002.09,VALID,0,INVALID,163.655,VALID,0,VALID,24.93,VALID,10,VALID,0,
2011-05-24, 01:47:04,VALID,1002.15,VALID,0,INVALID,163.685,VALID,0,VALID,24.9263,VALID,10,VALID,0.03125,
2011-05-24, 01:48:04,VALID,1002.1,VALID,0,INVALID,163.67,VALID,0,VALID,24.9476,VALID,10,VALID,0.282813,
2011-05-24, 01:49:04,VALID,1002.11,VALID,0,INVALID,163.678,VALID,0,VALID,24.9885,VALID,10,VALID,0.162891,
2011-05-24, 01:50:04,VALID,1002.1,VALID,0,INVALID,163.655,VALID,0,VALID,25.0274,VALID,10,VALID,0.305469,
2011-05-24, 01:51:04,VALID,1002.08,VALID,0,INVALID,163.678,VALID,0,VALID,25.045,VALID,10,VALID,0.612891,
2011-05-24, 01:52:04,VALID,1002.07,VALID,0,INVALID,163.647,VALID,0,VALID,25.0663,VALID,10,VALID,0.635547,
2011-05-24, 01:53:04,VALID,1002.05,VALID,0,INVALID,163.655,VALID,0,VALID,25.045,VALID,10,VALID,0.696484,
2011-05-24, 01:54:04,VALID,1002.02,VALID,0,INVALID,163.678,VALID,0,VALID,25.0255,VALID,10,VALID,0.707031,
2011-05-24, 01:55:04,VALID,1002,VALID,0,INVALID,163.685,VALID,0,VALID,24.9866,VALID,10,VALID,0.597266,
2011-05-24, 01:56:04,VALID,1002,VALID,0,INVALID,163.678,VALID,0,VALID,24.9866,VALID,10,VALID,0.505078,
2011-05-24, 01:57:04,VALID,1002,VALID,0,INVALID,163.662,VALID,0,VALID,24.9476,VALID,354,VALID,0.407031,
2011-05-24, 01:58:04,VALID,1001.97,VALID,0,INVALID,163.662,VALID,0,VALID,24.9476,VALID,23,VALID,0.408203,
2011-05-24, 01:59:04,VALID,1001.96,VALID,0,INVALID,163.701,VALID,0,VALID,24.9476,VALID,23,VALID,0.428125,
2011-05-24, 02:00:04,VALID,1002,VALID,0,INVALID,163.701,VALID,0,VALID,24.9282,VALID,23,VALID,0.467969,
2011-05-24, 02:01:04,VALID,1002.01,VALID,0,INVALID,163.662,VALID,0,VALID,24.9282,VALID,23,VALID,0.196875,
2011-05-24, 02:02:04,VALID,1002.03,VALID,0,INVALID,163.685,VALID,0,VALID,24.9282,VALID,23,VALID,0.383203,
2011-05-24, 02:03:04,VALID,1002.04,VALID,0,INVALID,163.716,VALID,0,VALID,24.9476,VALID,23,VALID,0.356641,
2011-05-24, 02:04:04,VALID,1002.04,VALID,0,INVALID,163.67,VALID,0,VALID,24.9476,VALID,23,VALID,0.339844,
2011-05-24, 02:05:04,VALID,1002,VALID,0,INVALID,163.67,VALID,0,VALID,24.9282,VALID,23,VALID,0.537891,
2011-05-24, 02:06:04,VALID,1001.97,VALID,0,INVALID,163.678,VALID,0,VALID,24.9495,VALID,23,VALID,0.475781,
2011-05-24, 02:07:04,VALID,1001.97,VALID,0,INVALID,163.678,VALID,0,VALID,24.9282,VALID,23,VALID,0.352344,
2011-05-24, 02:08:04,VALID,1001.94,VALID,0,INVALID,163.685,VALID,0,VALID,24.9087,VALID,23,VALID,0.338281,
2011-05-24, 02:09:04,VALID,1001.91,VALID,0,INVALID,163.655,VALID,0,VALID,24.8892,VALID,23,VALID,0.377734,
2011-05-24, 02:10:04,VALID,1001.92,VALID,0,INVALID,163.693,VALID,0,VALID,24.8716,VALID,23,VALID,0.435547,
2011-05-24, 02:11:04,VALID,1001.92,VALID,0,INVALID,163.685,VALID,0,VALID,24.8308,VALID,23,VALID,0.410156,
2011-05-24, 02:12:04,VALID,1001.91,VALID,0,INVALID,163.67,VALID,0.100563,VALID,24.7919,VALID,23,VALID,0.520703,
2011-05-24, 02:13:04,VALID,1001.91,VALID,0,INVALID,163.693,VALID,0.100563,VALID,24.7724,VALID,22,VALID,0.607031,
2011-05-24, 02:14:04,VALID,1001.91,VALID,0,INVALID,163.685,VALID,0,VALID,24.7724,VALID,15,VALID,0.553125,
2011-05-24, 02:15:04,VALID,1001.87,VALID,0,INVALID,163.67,VALID,0,VALID,24.7724,VALID,15,VALID,0.487109,
2011-05-24, 02:16:04,VALID,1001.84,VALID,0,INVALID,163.662,VALID,0,VALID,24.7724,VALID,15,VALID,0.604688,
2011-05-24, 02:17:04,VALID,1001.82,VALID,0,INVALID,163.685,VALID,0,VALID,24.751,VALID,15,VALID,0.380859,
2011-05-24, 02:18:04,VALID,1001.78,VALID,0,INVALID,163.693,VALID,0,VALID,24.7743,VALID,15,VALID,0.223828,
2011-05-24, 02:19:04,VALID,1001.75,VALID,0,INVALID,163.662,VALID,0,VALID,24.7529,VALID,15,VALID,0.280078,
2011-05-24, 02:20:04,VALID,1001.67,VALID,0,INVALID,163.678,VALID,0,VALID,24.7335,VALID,15,VALID,0.398828,
2011-05-24, 02:21:04,VALID,1001.62,VALID,0,INVALID,163.708,VALID,0,VALID,24.714,VALID,13,VALID,0.558984,
2011-05-24, 02:22:04,VALID,1001.57,VALID,0,INVALID,163.716,VALID,0,VALID,24.6556,VALID,7,VALID,0.664453,
2011-05-24, 02:23:04,VALID,1001.54,VALID,0,INVALID,163.678,VALID,0,VALID,24.6361,VALID,6,VALID,0.562891,
2011-05-24, 02:24:04,VALID,1001.52,VALID,0,INVALID,163.716,VALID,0,VALID,24.6185,VALID,6,VALID,0.555859,
2011-05-24, 02:25:04,VALID,1001.51,VALID,0,INVALID,163.723,VALID,0,VALID,24.599,VALID,4,VALID,0.539063,
2011-05-24, 02:26:04,VALID,1001.52,VALID,0,INVALID,163.701,VALID,0,VALID,24.5777,VALID,347,VALID,0.526953,
2011-05-24, 02:27:04,VALID,1001.5,VALID,0,INVALID,163.701,VALID,0,VALID,24.599,VALID,335,VALID,0.328906,
2011-05-24, 02:28:04,VALID,1001.47,VALID,0,INVALID,163.701,VALID,0,VALID,24.5972,VALID,335,VALID,0.2375,
2011-05-24, 02:29:04,VALID,1001.46,VALID,0,INVALID,163.701,VALID,0.100563,VALID,24.6574,VALID,335,VALID,0.0554687,
2011-05-24, 02:30:04,VALID,1001.41,VALID,0,INVALID,163.678,VALID,0.100563,VALID,24.6537,VALID,353,VALID,0.464844,
2011-05-24, 02:31:04,VALID,1001.41,VALID,0,INVALID,163.693,VALID,0,VALID,24.7335,VALID,349,VALID,0.432031,
2011-05-24, 02:32:04,VALID,1001.44,VALID,0,INVALID,163.662,VALID,0,VALID,24.7529,VALID,349,VALID,0.575391,
2011-05-24, 02:33:04,VALID,1001.48,VALID,0,INVALID,163.678,VALID,0,VALID,24.7743,VALID,349,VALID,0.514063,
2011-05-24, 02:34:04,VALID,1001.46,VALID,0,INVALID,163.685,VALID,0,VALID,24.7335,VALID,351,VALID,0.352734,
2011-05-24, 02:35:04,VALID,1001.52,VALID,0,INVALID,163.685,VALID,0,VALID,24.7529,VALID,351,VALID,0.325,
2011-05-24, 02:36:04,VALID,1001.53,VALID,0,INVALID,163.678,VALID,0,VALID,24.714,VALID,351,VALID,0.310937,
2011-05-24, 02:37:04,VALID,1001.54,VALID,0,INVALID,163.685,VALID,0,VALID,24.7335,VALID,351,VALID,0.183984,
2011-05-24, 02:38:04,VALID,1001.52,VALID,0,INVALID,163.678,VALID,0,VALID,24.7159,VALID,351,VALID,0.214453,
2011-05-24, 02:39:04,VALID,1001.5,VALID,0,INVALID,163.662,VALID,0,VALID,24.714,VALID,351,VALID,0.245703,
2011-05-24, 02:40:04,VALID,1001.53,VALID,0,INVALID,163.701,VALID,0,VALID,24.7335,VALID,351,VALID,0.428516,
2011-05-24, 02:41:04,VALID,1001.56,VALID,0,INVALID,163.67,VALID,0.100563,VALID,24.7919,VALID,338,VALID,0.272266,
2011-05-24, 02:42:04,VALID,1001.57,VALID,0,INVALID,163.67,VALID,0,VALID,24.8503,VALID,323,VALID,0.641406,
2011-05-24, 02:43:04,VALID,1001.59,VALID,0,INVALID,163.662,VALID,0,VALID,24.8892,VALID,333,VALID,0.367188,
2011-05-24, 02:44:04,VALID,1001.58,VALID,0,INVALID,163.67,VALID,0,VALID,24.8892,VALID,330,VALID,0.468359,
2011-05-24, 02:45:04,VALID,1001.6,VALID,0,INVALID,163.678,VALID,0,VALID,24.8679,VALID,342,VALID,0.430078,
2011-05-24, 02:46:04,VALID,1001.58,VALID,0,INVALID,163.678,VALID,0,VALID,24.8289,VALID,1,VALID,0.473828,
2011-05-24, 02:47:04,VALID,1001.55,VALID,0,INVALID,163.662,VALID,0,VALID,24.8308,VALID,1,VALID,0.412109,
2011-05-24, 02:48:04,VALID,1001.54,VALID,0,INVALID,163.685,VALID,0.100563,VALID,24.8503,VALID,360,VALID,0.397266,
2011-05-24, 02:49:04,VALID,1001.54,VALID,0,INVALID,163.693,VALID,0,VALID,24.8289,VALID,360,VALID,0.404687,
2011-05-24, 02:50:04,VALID,1001.54,VALID,0,INVALID,163.701,VALID,0,VALID,24.8308,VALID,348,VALID,0.442187,
2011-05-24, 02:51:04,VALID,1001.55,VALID,0,INVALID,163.67,VALID,0,VALID,24.8697,VALID,346,VALID,0.56875,
2011-05-24, 02:52:04,VALID,1001.56,VALID,0,INVALID,163.639,VALID,0,VALID,24.8892,VALID,347,VALID,0.846484,
2011-05-24, 02:53:04,VALID,1001.58,VALID,0,INVALID,163.655,VALID,0,VALID,24.9671,VALID,356,VALID,0.610156,
2011-05-24, 02:54:04,VALID,1001.56,VALID,0,INVALID,163.678,VALID,0,VALID,25.0255,VALID,353,VALID,1.02422,
2011-05-24, 02:55:04,VALID,1001.54,VALID,0,INVALID,163.678,VALID,0,VALID,25.0839,VALID,355,VALID,0.947656,
2011-05-24, 02:56:04,VALID,1001.56,VALID,0,INVALID,163.647,VALID,0,VALID,25.1813,VALID,354,VALID,0.918359,
2011-05-24, 02:57:04,VALID,1001.56,VALID,0,INVALID,163.662,VALID,0,VALID,25.2397,VALID,353,VALID,0.879297,
2011-05-24, 02:58:04,VALID,1001.55,VALID,0,INVALID,163.647,VALID,0.100563,VALID,25.2981,VALID,358,VALID,1.15234,
2011-05-24, 02:59:04,VALID,1001.54,VALID,0,INVALID,163.632,VALID,0.100563,VALID,25.3565,VALID,358,VALID,0.822656,
2011-05-24, 03:00:04,VALID,1001.53,VALID,0,INVALID,163.639,VALID,0.100563,VALID,25.4363,VALID,346,VALID,0.668359,
2011-05-24, 03:01:04,VALID,1001.51,VALID,0,INVALID,163.639,VALID,0.100563,VALID,25.4344,VALID,344,VALID,0.996875,
2011-05-24, 03:02:04,VALID,1001.54,VALID,0,INVALID,163.624,VALID,0,VALID,25.4734,VALID,337,VALID,0.568359,
2011-05-24, 03:03:04,VALID,1001.47,VALID,0,INVALID,163.655,VALID,0,VALID,25.4928,VALID,358,VALID,0.571094,
2011-05-24, 03:04:04,VALID,1001.51,VALID,0,INVALID,163.624,VALID,0,VALID,25.5123,VALID,347,VALID,0.739453,
2011-05-24, 03:05:04,VALID,1001.46,VALID,0,INVALID,163.655,VALID,0,VALID,25.4928,VALID,347,VALID,0.465234,
2011-05-24, 03:06:04,VALID,1001.45,VALID,0,INVALID,163.632,VALID,0.100563,VALID,25.4928,VALID,350,VALID,0.64375,
2011-05-24, 03:07:04,VALID,1001.42,VALID,0,INVALID,163.647,VALID,0.100563,VALID,25.4734,VALID,351,VALID,0.494531,
2011-05-24, 03:08:04,VALID,1001.39,VALID,0,INVALID,163.655,VALID,0.100563,VALID,25.4734,VALID,347,VALID,0.665625,
2011-05-24, 03:09:04,VALID,1001.34,VALID,0,INVALID,163.647,VALID,0.100563,VALID,25.452,VALID,360,VALID,0.916016,
2011-05-24, 03:10:04,VALID,1001.35,VALID,0,INVALID,163.655,VALID,0,VALID,25.5123,VALID,343,VALID,0.647656,
2011-05-24, 03:11:04,VALID,1001.3,VALID,0,INVALID,163.617,VALID,0,VALID,25.5104,VALID,339,VALID,0.913281,
2011-05-24, 03:12:04,VALID,1001.3,VALID,0,INVALID,163.639,VALID,0,VALID,25.5727,VALID,346,VALID,0.43125,
2011-05-24, 03:13:04,VALID,1001.3,VALID,0,INVALID,163.655,VALID,0,VALID,25.5513,VALID,350,VALID,0.546484,
2011-05-24, 03:14:04,VALID,1001.24,VALID,0,INVALID,163.624,VALID,0.100563,VALID,25.5883,VALID,344,VALID,0.775,
2011-05-24, 03:15:04,VALID,1001.26,VALID,0,INVALID,163.601,VALID,0,VALID,25.6077,VALID,347,VALID,1.4625,
2011-05-24, 03:16:04,VALID,1001.21,VALID,0,INVALID,163.647,VALID,0,VALID,25.6681,VALID,350,VALID,0.925781,
2011-05-24, 03:17:04,VALID,1001.2,VALID,0,INVALID,163.617,VALID,0,VALID,25.6876,VALID,352,VALID,1.10938,
2011-05-24, 03:18:04,VALID,1001.14,VALID,0,INVALID,163.647,VALID,0,VALID,25.7265,VALID,355,VALID,0.984375,
2011-05-24, 03:19:04,VALID,1001.15,VALID,0,INVALID,163.624,VALID,0,VALID,25.7265,VALID,350,VALID,0.551953,
2011-05-24, 03:20:04,VALID,1001.13,VALID,0,INVALID,163.609,VALID,0,VALID,25.7265,VALID,341,VALID,0.561719,
2011-05-24, 03:21:04,VALID,1001.13,VALID,0,INVALID,163.609,VALID,0,VALID,25.7265,VALID,354,VALID,0.703516,
2011-05-24, 03:22:04,VALID,1001.11,VALID,0,INVALID,163.624,VALID,0,VALID,25.7071,VALID,351,VALID,0.863672,
2011-05-24, 03:23:04,VALID,1001.11,VALID,0,INVALID,163.617,VALID,0,VALID,25.6662,VALID,348,VALID,0.614844,
2011-05-24, 03:24:04,VALID,1001.12,VALID,0,INVALID,163.639,VALID,0,VALID,25.6681,VALID,351,VALID,0.788672,
2011-05-24, 03:25:04,VALID,1001.09,VALID,0,INVALID,163.601,VALID,0,VALID,25.6486,VALID,342,VALID,0.813672,
2011-05-24, 03:26:04,VALID,1001.1,VALID,0,INVALID,163.647,VALID,0,VALID,25.6681,VALID,351,VALID,0.754297,
2011-05-24, 03:27:04,VALID,1001.09,VALID,0,INVALID,163.624,VALID,0,VALID,25.6486,VALID,334,VALID,0.986328,
2011-05-24, 03:28:04,VALID,1001.06,VALID,0,INVALID,163.624,VALID,0,VALID,25.6292,VALID,341,VALID,0.410547,
2011-05-24, 03:29:04,VALID,1001.05,VALID,0,INVALID,163.632,VALID,0,VALID,25.6097,VALID,352,VALID,0.404687,
2011-05-24, 03:30:04,VALID,1001.03,VALID,0,INVALID,163.617,VALID,0.100563,VALID,25.5883,VALID,357,VALID,0.882422,
2011-05-24, 03:31:04,VALID,1001.02,VALID,0,INVALID,163.609,VALID,0,VALID,25.6097,VALID,357,VALID,0.830859,
2011-05-24, 03:32:04,VALID,1001,VALID,0,INVALID,163.601,VALID,0,VALID,25.5902,VALID,347,VALID,0.391797,
2011-05-24, 03:33:04,VALID,1000.99,VALID,0,INVALID,163.624,VALID,0.100563,VALID,25.6097,VALID,347,VALID,0.438672,
2011-05-24, 03:34:04,VALID,1000.98,VALID,0,INVALID,163.609,VALID,0,VALID,25.5902,VALID,343,VALID,0.749219,
2011-05-24, 03:35:04,VALID,1000.95,VALID,0,INVALID,163.632,VALID,0,VALID,25.6116,VALID,356,VALID,0.600781,
2011-05-24, 03:36:04,VALID,1000.94,VALID,0,INVALID,163.632,VALID,0,VALID,25.5513,VALID,351,VALID,0.810156,
2011-05-24, 03:37:04,VALID,1000.91,VALID,0,INVALID,163.639,VALID,0.100563,VALID,25.5513,VALID,353,VALID,0.870313,